Location: Karlsruhe
(49.0131°N, 8.3874°E)
Time: 16:34:47
(UTC+02:00)

ISS - Visible Passes

Search period start: 25 May 2018 00:00
Search period end: 04 June 2018 00:00
Orbit: 402 x 407 km, 51.6° (Epoch: 25 May)

Date Brightness Start Highest point End Pass type
(mag) Time Alt. Az. Time Alt. Az. Time Alt. Az.
25 May -3.0 00:29:24 10° WNW 00:32:37 52° N 00:35:43 11° E visible
25 May -3.2 02:05:57 10° WNW 02:08:18 43° W 02:08:18 43° W visible
25 May -3.9 22:00:25 10° WSW 22:03:41 81° SSE 22:06:58 10° ENE visible
25 May -3.0 23:37:07 10° W 23:40:19 51° N 23:43:32 10° ENE visible
26 May -3.8 01:13:45 10° WNW 01:17:02 79° NNE 01:17:15 73° ENE visible
26 May -3.1 22:44:48 10° W 22:48:02 56° N 22:51:17 10° ENE visible
27 May -3.4 00:21:31 10° WNW 00:24:47 61° NNE 00:26:25 26° E visible
27 May -1.7 01:58:05 10° WNW 01:59:02 17° W 01:59:02 17° W visible
27 May -3.4 21:52:30 10° W 21:55:45 68° NNW 21:59:01 10° ENE visible
27 May -3.1 23:29:15 10° WNW 23:32:29 53° N 23:35:41 10° E visible
28 May -3.3 01:05:48 10° WNW 01:08:19 46° W 01:08:19 46° W visible
28 May -2.9 22:36:57 10° WNW 22:40:10 51° N 22:43:22 10° ENE visible
29 May -3.9 00:13:33 10° WNW 00:16:50 87° NNE 00:17:38 48° ESE visible
29 May -3.5 23:21:18 10° WNW 23:24:33 66° NNE 23:27:00 16° E visible
30 May -2.2 00:57:54 10° W 00:59:38 25° W 00:59:38 25° W visible
30 May -3.2 22:29:00 10° WNW 22:32:14 55° N 22:35:28 10° E visible
31 May -3.8 00:05:32 10° WNW 00:08:45 56° SSW 00:09:02 53° S visible
31 May -3.9 23:13:14 10° WNW 23:16:31 83° SSW 23:18:26 23° ESE visible
01 Jun -1.5 00:50:15 10° W 00:51:05 14° WSW 00:51:05 14° WSW visible
01 Jun -3.6 22:20:56 10° WNW 22:24:13 73° NNE 22:27:30 10° ESE visible
01 Jun -2.8 23:57:36 10° W 00:00:32 30° SW 00:00:32 30° SW visible
02 Jun -3.4 23:05:10 10° WNW 23:08:20 47° SSW 23:09:59 24° SE visible
03 Jun -3.8 22:12:49 10° WNW 22:16:05 73° SSW 22:19:20 10° ESE visible
03 Jun -1.8 23:50:02 10° W 23:52:06 16° SW 23:52:06 16° SW visible
